Regional Weather Roundup
Issued by NWS State College, PA

Home | Current Version | Previous Version | Text Only | Print | Product List | Glossary Off
Versions: 1 2 3 4 5 6 7 8 9 10 11 12 13 14 15 16 17 18 19 20 21 22 23 24 25 26 27 28 29 30 31 32 33 34 35 36 37 38 39 40 41 42 43 44 45 46 47 48 49 50

000
ASUS41 KCTP 221910
RWRCTP

REGIONAL WEATHER ROUNDUP
NATIONAL WEATHER SERVICE STATE COLLEGE PA
200 PM EST SAT NOV 22 2014

Note: "fair" indicates few or no clouds below 12,000 feet with no
significant weather and/or obstructions to visibility.

* = STATION THAT DOES NOT REPORT PRECIPITATION /E.G. RAIN...SNOW...ETC/
    THUNDER OR FOG.

PAZ002>004-007>009-013>016-020>023-029>032-222000-
WESTERN PENNSYLVANIA

CITY           SKY/WX    TMP DP  RH WIND       PRES   REMARKS
ERIE           CLOUDY    42  36  79 S22       30.04F
MEADVILLE      CLOUDY    35  33  92 VRB6      30.09F FOG
FRANKLIN*      CLOUDY    34  30  86 S13       30.14F
NEW CASTLE       N/A     36  34  92 VRB5      30.16F
BEAVER COUNTY  CLOUDY    37  32  81 S10       30.16F
BUTLER*        CLOUDY    36  30  80 S7        30.19F
PITTSBURGH INT CLOUDY    41  30  65 SW6       30.18F
PITTSBURGH     CLOUDY    42  24  49 S12       30.18F
INDIANA*       CLOUDY    36  30  80 SW7       30.23F
LATROBE        CLOUDY    43  23  45 S14       30.22F
WASHINGTON CO* CLOUDY    46  28  49 SW12      30.21F
$$

PAZ004>006-010>012-017>019-024>028-033>037-041-042-045-046-049>053-222000-
CENTRAL PENNSYLVANIA

CITY           SKY/WX    TMP DP  RH WIND       PRES   REMARKS
BRADFORD       LGT RAIN  33  30  88 S8G18     30.10F FOG
DUBOIS         CLOUDY    33  31  92 SW7       30.14F FOG
CLEARFIELD     MIX PCPN  30  26  85 S3        30.18F FOG
JOHNSTOWN      CLOUDY    40  23  50 SW13G21   30.18F
ALTOONA        CLOUDY    42  22  44 SW7       30.21F
STATE COLLEGE  CLOUDY    32  18  55 SW6       30.20F
WILLIAMSPORT   CLOUDY    36  13  38 CALM      30.26F
SELINSGROVE    CLOUDY    37  14  38 S12       30.28F
FT INDIANTOWN  CLOUDY    39  14  35 SW7       30.30F
CAPITAL CITY   CLOUDY    41  13  31 S6        30.31F
HARRISBURG     CLOUDY    40  15  36 S6        30.30
YORK           CLOUDY    43  13  29 S8        30.31F
$$

PAZ038>040-043-044-047-048-054-055-060>062-067>071-222000-
EASTERN PENNSYLVANIA

CITY           SKY/WX    TMP DP  RH WIND       PRES   REMARKS
SCRANTON       CLOUDY    39  10  30 SW10      30.21F
MOUNT POCONO   CLOUDY    36   7  29 SW9       30.20F
ALLENTOWN      CLOUDY    43  11  27 SW14G20   30.30F
QUAKERTOWN*    MOCLDY    41  16  36 S8        30.31F
READING        LGT RAIN  43  16  33 SW9       30.31F
LANCASTER      LGT RAIN  42  15  33 S8        30.32F
COATESVILLE    PTCLDY    39  14  35 SW8       30.31F
POTTSTOWN      CLOUDY    43  14  31 VRB7      30.33F
BLUE BELL      MOSUNNY   45  19  36 SW10G20   30.32F
DOYLESTOWN     PTSUNNY   40  15  36 SW12G17   30.31F
WILLOW GROVE   NOT AVBL
NORTH PHILA    MOSUNNY   45  15  30 SW14G24   30.35F
PHILADELPHIA   PTSUNNY   45  18  34 SW18      30.36F
$$



USA.gov is the U.S. government's official web portal to all federal, state and local government web resources and services.